San Bernardino, CA

2:06 PM PST on December 05, 2019 (GMT -0800)
San Bernardino International

Weather History for KSBD - May, 2019

Change the Weather History Date:

Wednesday, May 8, 2019

  Actual Average Record
Temperature  
Mean Temperature 62 °F -  
Max Temperature 66 °F 80 °F 91 °F (2012)
Min Temperature 57 °F 51 °F 42 °F (2017)
Degree Days  
Heating Degree Days 4    
Growing Degree Days 12 (Base 50)    
Moisture  
Dew Point 48 °F    
Average Humidity 66    
Maximum Humidity 74    
Minimum Humidity 52    
Precipitation  
Precipitation 0.00 in - - ()
Sea Level Pressure  
Sea Level Pressure 29.99 in    
Wind  
Wind Speed 6 mph (WSW)    
Max Wind Speed 9 mph    
Max Gust Speed -    
Visibility 8 miles    
Events      
Averages and records for this station are not official NWS values.
T = Trace of Precipitation, MM = Missing Value Source: NWS Daily Summary

Daily Weather History Graph

Daily Weather History Graph

Search for Another Location

Airport or City:

Astronomy

May. 08, 2019 Rise Set
Actual Time 5:53 AM PDT 7:38 PM PDT
Civil Twilight 5:25 AM PDT 8:05 PM PDT
Nautical Twilight 4:53 AM PDT 8:38 PM PDT
Astronomical Twilight 4:18 AM PDT 9:13 PM PDT
Moon 8:58 AM PDT (5/8) 11:38 PM PDT (5/8)
Length of Visible Light 14h 39m
Length of Day
13h 45m
Waxing Crescent, 16% of the Moon is Illuminated
May 8
Waxing Crescent
May 11
First Quarter
May 18
Full
May 26
Last Quarter
Jun 3
New

Hourly Weather History & Observations

Time (PDT) Temp. Dew Point Humidity Pressure Visibility Wind Dir Wind Speed Gust Speed Precip Events Conditions
12:00 AM 59.2 °F 48.2 °F 67% 30.06 in 10.0 mi WSW 6.9 mph - N/A   Overcast
12:20 AM 59.0 °F 47.8 °F 66% 30.05 in 10.0 mi WSW 9.2 mph - N/A   Overcast
12:40 AM 59.0 °F 48.2 °F 67% 30.05 in 10.0 mi WSW 6.9 mph - N/A   Overcast
1:00 AM 58.6 °F 48.2 °F 68% 30.04 in 10.0 mi WSW 8.1 mph - N/A   Overcast
1:20 AM 58.3 °F 47.8 °F 68% 30.05 in 10.0 mi West 6.9 mph - N/A   Overcast
1:40 AM 58.5 °F 47.8 °F 68% 30.05 in 10.0 mi West 8.1 mph - N/A   Overcast
2:00 AM 58.3 °F 47.8 °F 68% 30.04 in 10.0 mi West 5.8 mph - N/A   Overcast
2:20 AM 58.3 °F 47.7 °F 68% 30.04 in 10.0 mi West 5.8 mph - N/A   Overcast
2:40 AM 58.1 °F 47.7 °F 68% 30.03 in 10.0 mi West 4.6 mph - N/A   Overcast
3:00 AM 57.7 °F 47.7 °F 69% 30.02 in 10.0 mi West 5.8 mph - N/A   Overcast
3:20 AM 57.7 °F 47.7 °F 69% 30.02 in 10.0 mi West 4.6 mph - N/A   Overcast
3:40 AM 57.7 °F 47.7 °F 69% 30.02 in 10.0 mi West 5.8 mph - N/A   Overcast
4:00 AM 57.7 °F 47.8 °F 70% 30.02 in 10.0 mi West 4.6 mph - N/A   Overcast
4:20 AM 57.6 °F 48.2 °F 71% 30.02 in 10.0 mi WSW 5.8 mph - N/A   Overcast
4:40 AM 57.4 °F 48.4 °F 72% 30.02 in 10.0 mi West 5.8 mph - N/A   Overcast
5:00 AM 57.4 °F 48.7 °F 73% 30.02 in 10.0 mi West 5.8 mph - N/A   Overcast
5:20 AM 57.2 °F 48.7 °F 73% 30.02 in 10.0 mi West 5.8 mph - N/A   Overcast
5:40 AM 57.2 °F 49.1 °F 74% 30.02 in 10.0 mi West 4.6 mph - N/A   Overcast
7:00 AM 57.2 °F 48.2 °F 72% 30.02 in 5.0 mi WSW 3.5 mph - N/A   Overcast
7:45 AM 57.2 °F 48.2 °F 72% 30.03 in 5.0 mi West 3.5 mph - N/A   Overcast
7:47 AM 57.2 °F 48.2 °F 72% 30.03 in 5.0 mi West 3.5 mph - N/A   Overcast
8:45 AM 59.0 °F 48.2 °F 67% 30.02 in 5.0 mi Calm Calm - N/A   Haze
9:46 AM 59.0 °F 48.2 °F 67% 30.01 in 6.0 mi Calm Calm - N/A   Haze
10:48 AM 60.8 °F 48.2 °F 63% 30.01 in 6.0 mi Calm Calm - N/A   Haze
11:51 AM 62.6 °F 48.2 °F 59% 30.00 in 6.0 mi Calm Calm - N/A   Haze
12:49 PM 64.4 °F 48.2 °F 56% 29.99 in 6.0 mi WSW 3.5 mph - N/A   Haze
1:50 PM 64.4 °F 46.4 °F 52% 29.98 in 3.0 mi Calm Calm - N/A   Haze
2:55 PM 66.2 °F 48.2 °F 52% 29.96 in 3.0 mi WSW 3.5 mph - N/A   Haze
3:49 PM 64.4 °F 48.2 °F 56% 29.94 in 3.0 mi West 9.2 mph - N/A   Haze
4:50 PM 64.4 °F 48.2 °F 56% 29.92 in 4.0 mi WSW 6.9 mph - N/A   Haze
5:47 PM 66.2 °F 48.2 °F 52% 29.92 in 7.0 mi West 5.8 mph - N/A   Overcast
6:50 PM 64.4 °F 48.2 °F 56% 29.91 in 7.0 mi WSW 5.8 mph - N/A   Overcast
7:50 PM 62.6 °F 48.2 °F 59% 29.92 in 7.0 mi West 6.9 mph - N/A   Overcast
8:50 PM 62.6 °F 50.0 °F 63% 29.92 in 7.0 mi WSW 8.1 mph - N/A   Overcast
9:40 PM 61.0 °F 50.0 °F 67% 29.92 in 10.0 mi West 6.9 mph - N/A   Overcast
10:00 PM 61.0 °F 50.0 °F 67% 29.93 in 10.0 mi WSW 6.9 mph - N/A   Overcast
10:20 PM 60.8 °F 50.0 °F 68% 29.93 in 10.0 mi WSW 5.8 mph - N/A   Overcast
10:40 PM 60.4 °F 50.0 °F 68% 29.92 in 10.0 mi SW 5.8 mph - N/A   Overcast
11:00 PM 60.1 °F 50.0 °F 69% 29.92 in 10.0 mi WSW 6.9 mph - N/A   Overcast
11:20 PM 59.9 °F 50.0 °F 70% 29.92 in 10.0 mi WSW 5.8 mph - N/A   Overcast
11:40 PM 59.9 °F 50.0 °F 70% 29.92 in 10.0 mi WSW 5.8 mph - N/A   Overcast